Location: Unspecified
(0.0000°N, 0.0000°E)
Time: 12:26:10
(UTC+00:00)

ISS - Pass Details

Date: 14 October 2017
Orbit: 417 x 425 km, 51.6° (Epoch: 29 March)

Event Time Altitude Azimuth Distance (km) Brightness Sun altitude
Rises 18:37:27 0° 210° (SSW) 2,373 0.7 -12.7°
Reaches altitude 10° 18:39:34 10° 206° (SSW) 1,493 -0.5 -13.3°
Maximum altitude 18:42:49 59° 125° (SE) 488 -3.7 -14.1°
Enters shadow 18:44:29 26° 54° (NE) 877 -2.7 -14.5°
